Flag for Canada Weather past 2 weeks in Pictou County, Nova Scotia, Canada

Now
70 °F

Mild.


Feels Like: 66 °F
Forecast: 69 / 78 °F
Wind: 15 mph from South

Location: Caribou Point

Current Time: Jul 29, 2014 at 2:35:54 AM

Latest Report: Jul 29, 2014 at 2:00 AM


Visibility: N/A

Pressure: 29.70 "Hg

Humidity: 92%

Dew point: 67 °F

Location of Pictou CountyLocation

Historic Weather in Pictou County — Graph

°F

Pictou County temperature yesterday

Maximum temperature yesterday: 80 °F (at 4:00 PM)
Minimum temperature yesterday: 66 °F (at 12:00 AM)
Average temperature yesterday: 72 °F

Past Weeks' High & Low Weather Summary

 TemperatureHumidityPressure
High89 °F (Jul 23, 4:00 PM)99% (Jul 18, 2:00 AM)30.27 "Hg (Jul 18, 2:00 AM)
Low59 °F (Jul 20, 6:00 AM)32% (Jul 26, 4:00 PM)29.70 "Hg (Jul 23, 6:00 PM)
Average70 °F78%29.95 "Hg
* Reported Jul 14 1:00 AM — Jul 29 1:00 AM, Pictou County, Weather by CustomWeather, © 2014

Note: Actual official high and low records may vary slightly from our data, if they occured in-between our weather recording intervals... More about our weather records

Advertising

Pictou County weather history for previous 24 hours

 ConditionsComfort  
Time TempWeatherWind HumidityBarometerVisibility
1:00 AM
Jul 29
69 °FMild.14 mph94%29.71 "HgN/A
12:00 AM70 °FMild.13 mph92%29.73 "HgN/A
11:00 PM
Jul 28
70 °FMild.17 mph90%29.75 "HgN/A
10:00 PM69 °FMild.16 mph89%29.78 "HgN/A
9:00 PM71 °FMild.18 mph84%29.79 "HgN/A
8:00 PM71 °FMild.18 mph83%29.79 "HgN/A
7:00 PM76 °FMild.18 mph78%29.78 "HgN/A
6:00 PM77 °FWarm.20 mph74%29.80 "HgN/A
5:00 PM76 °FMild.22 mph77%29.80 "HgN/A
4:00 PM80 °FWarm.18 mph68%29.80 "HgN/A
3:00 PM79 °FWarm.17 mph70%29.81 "HgN/A
2:00 PM79 °FWarm.22 mph69%29.81 "HgN/A
1:00 PM79 °FWarm.16 mph69%29.83 "HgN/A
12:00 PM79 °FWarm.15 mph70%29.84 "HgN/A
11:00 AM77 °FMild.20 mph70%29.84 "HgN/A
10:00 AM76 °FMild.17 mph69%29.84 "HgN/A
9:00 AM71 °FMild.15 mph83%29.85 "HgN/A
8:00 AM70 °FMild.15 mph86%29.84 "HgN/A
7:00 AM67 °FMild.10 mph92%29.85 "HgN/A
6:00 AM68 °FMild.8 mph91%29.86 "HgN/A
5:00 AM68 °FMild.8 mph89%29.86 "HgN/A
4:00 AM67 °FMild.16 mph87%29.85 "HgN/A
3:00 AM66 °FMild.16 mph86%29.86 "HgN/A
2:00 AM67 °FMild.18 mph84%29.87 "HgN/A
Weather by CustomWeather, © 2014

See weather overviewHow to use our weather pages